Location: Bosmont
(49.7318°N, 3.8587°E)
Time: 14:40:27
(UTC+00:00)

Meteor 1-11 Rocket - Pass Details

Date: 26 February 2024
Orbit: 830 x 916 km, 81.2° (Epoch: 24 April)

Event Time Altitude Azimuth Distance (km) Brightness Sun altitude
Exits shadow 22:37:25 12° 4° (N) 2,477 6.5 -45.6°
Drops below altitude 10° 22:37:45 10° 5° (N) 2,600 6.7 -45.7°
Sets 22:40:20 0° 10° (N) 3,554 7.5 -45.9°
